Back to catalog

STARLINK-36797

AliveCommunicationsSSO
NORAD 67815·PAYLOAD·🇺🇸 United States

Launched Feb 15, 2026 from Vandenberg Space Force Base

Loading…

Next Passes (next 24 hours)

TLE

FreshSource: CelesTrak SupGP

Epoch: Sep 14, 2026, 15:20 UTC

1 67815C 26032U   26257.63937500 -.00059527  00000+0 -18486-2 0  2570
2 67815  97.2852  84.1281 0001527  86.7816  42.2681 15.33455705    19

Track STARLINK-36797 in real time with AllMySat

Download on the App Store